KRKDKAUG

Guest
Details From KRKD - Knox Co Rgnl
To KAUG - Augusta State
Flight Number -
Tags Routegen
Created
Modified
Stats Distance 34 nm / 63 km
Max Altitude 0 ft / 0 m
Waypoints 2
Social Downloads 5
Likes 0
Share

Download

Looking for another format? Having issues loading an existing format? Contact us
Advertisement - Login to hide

Notes

None

Route

KRKD KAUG

ID Type Via Altitude (ft/m) Position (lat/lon) Dist (leg/tot) Name
O KRKD APT - 0 / 0 44.06152 / -69.10837 - / 0 nm
O KAUG APT - 0 / 0 44.32766 / -69.80368 33 / 33 nm

Altitude Profile

Advertisement - Login to hide

KRKD

Details ICAO KRKD (RKD)
Name KNOX CO RGNL
Region United States
Timezone America/New_York (UTC-5.0)
Stats Elevation 56 ft / 17 m (AMSL)
Location 44.060200° -69.099200°
Runways 2
Magnetic Variation 15.572° W

METAR

KRKD 280156Z AUTO 03004KT 10SM OVC080 01/M02 A3005 RMK AO2 SLP176 T00061022 FZRANO

Decode

TAF

KRKD 272323Z 2800/2824 01004KT P6SM OVC025 FM281600 35007KT P6SM BKN030

Decode

Departure Runways

ID Width Length Bearing (true/mag) Surface Threshold Overrun Markings Lighting
03 100 ft / 30 m 4,004 ft / 1,220 m 13.39° / 28.96° ASPHALT 0 ft / 0 m 0 ft / 0 m APP EDGE THRESHOLD REIL-OMNI
13 100 ft / 30 m 5,012 ft / 1,528 m 110.98° / 126.56° ASPHALT 0 ft / 0 m 187 ft / 57 m PREC-APP EDGE THRESHOLD MALSR
21 100 ft / 30 m 4,004 ft / 1,220 m 193.39° / 208.97° ASPHALT 0 ft / 0 m 0 ft / 0 m APP EDGE THRESHOLD
31 100 ft / 30 m 5,012 ft / 1,528 m 291.00° / 306.57° ASPHALT 0 ft / 0 m 0 ft / 0 m APP EDGE THRESHOLD REIL-OMNI

KAUG

Details ICAO KAUG (AUG)
Name Augusta State Airport
Region United States
Timezone America/New_York (UTC-5.0)
Stats Elevation 352 ft / 107 m (AMSL)
Location 44.320300° -69.796400°
Runways 2
Magnetic Variation 15.412° W

METAR

KAUG 280153Z AUTO 35003KT 6SM -SN BR OVC050 M02/M02 A3005 RMK AO2 SNB30 SLP180 P0000 T10171022

Decode

TAF

KAUG 272323Z 2800/2824 01004KT 6SM -SN FEW018 OVC060 TEMPO 2800/2804 2SM -SN OVC015 FM281400 34008KT P6SM BKN050

Decode

Destination Runways

ID Width Length Bearing (true/mag) Surface Threshold Overrun Markings Lighting
08 75 ft / 23 m 2,706 ft / 825 m 62.00° / 77.41° ASPHALT 0 ft / 0 m 0 ft / 0 m APP EDGE THRESHOLD
17 100 ft / 30 m 5,006 ft / 1,526 m 153.19° / 168.60° ASPHALT 0 ft / 0 m 184 ft / 56 m PREC-APP EDGE THRESHOLD MALSR
26 75 ft / 23 m 2,706 ft / 825 m 242.00° / 257.41° ASPHALT 0 ft / 0 m 0 ft / 0 m APP EDGE THRESHOLD
35 100 ft / 30 m 5,006 ft / 1,526 m 333.19° / 348.61° ASPHALT 0 ft / 0 m 167 ft / 51 m PREC-APP EDGE THRESHOLD REIL-OMNI

Approach Navaids

Runway Type Ident Frequency Range Bearing (true/mag) Slope Elevation
17 MM MM - - 153.19° / 168.60 ° - 352 ft / 107 m (AMSL)
17 LOC-ILS IAUG 108.70 MHz 18 nm / 33 km 153.19° / 168.60 ° - 352 ft / 107 m (AMSL)
17 GS IAUG 108.70 MHz 10 nm / 19 km 153.19° / 168.60 ° 3.00° 352 ft / 107 m (AMSL)
17 OM OM - - 153.19° / 168.60 ° - 239 ft / 73 m (AMSL)

Popular Alternatives